Flag for Canada Weather past 2 weeks in Kenora, Ontario, Canada

52 °F

Partly sunny.

Feels Like: 49 °F
Forecast: 43 / 56 °F
Wind: 7 mph from South

Location: Kenora

Current Time: Oct 4, 2015 at 3:25:58 PM

Latest Report: Oct 4, 2015 at 3:00 PM

Visibility: 15 mi

Pressure: 30.26 "Hg

Humidity: 62%

Dew point: 39 °F

Location of KenoraLocation

Historic Weather in Kenora — Graph


Kenora temperature yesterday

Maximum temperature yesterday: 57 °F (at 3:00 PM)
Minimum temperature yesterday: 39 °F (at 7:00 AM)
Average temperature yesterday: 48 °F

Past Weeks' High & Low Weather Summary

High77 °F (Sep 21, 3:00 PM)100% (Sep 24, 7:00 AM)30.65 "Hg (Sep 24, 7:00 AM)
Low37 °F (Sep 29, 5:00 AM)32% (Sep 28, 3:00 PM)29.56 "Hg (Sep 21, 4:00 PM)
Average55 °F68%30.18 "Hg
* Reported Sep 19 2:00 PM — Oct 4 2:00 PM, Kenora, Weather by CustomWeather, © 2015

Note: Actual official high and low records may vary slightly from our data, if they occured in-between our weather recording intervals... More about our weather records


Kenora weather history for previous 24 hours

Time TempWeatherWind HumidityBarometerVisibility
2:00 PM
Sun, Oct 4
50 °FPartly sunny.9 mph71%30.28 "Hg15 mi
1:00 PM50 °FBroken clouds.10 mph67%30.29 "Hg15 mi
12:00 PM48 °FPartly sunny.7 mph71%30.31 "Hg15 mi
11:00 AM48 °FBroken clouds.9 mph71%30.33 "Hg15 mi
10:00 AM46 °FPartly sunny.10 mph76%30.34 "Hg15 mi
9:00 AM43 °FBroken clouds.8 mph81%30.35 "Hg15 mi
8:00 AM39 °FBroken clouds.6 mph87%30.35 "Hg15 mi
7:00 AM39 °FPartly cloudy.6 mph87%30.36 "Hg15 mi
6:00 AM41 °FPassing clouds.7 mph81%30.37 "Hg15 mi
5:00 AM41 °FPassing clouds.6 mph81%30.37 "Hg15 mi
4:00 AM41 °FPassing clouds.9 mph81%30.37 "Hg15 mi
3:00 AM43 °FPassing clouds.15 mph76%30.38 "Hg15 mi
2:00 AM43 °FPassing clouds.13 mph76%30.39 "Hg15 mi
1:00 AM43 °FPassing clouds.7 mph81%30.38 "Hg15 mi
12:00 AM45 °FClear.8 mph76%30.38 "Hg15 mi
11:00 PM
Sat, Oct 3
45 °FClear.7 mph76%30.38 "Hg15 mi
10:00 PM46 °FClear.9 mph71%30.38 "Hg15 mi
9:00 PM46 °FPassing clouds.7 mph71%30.39 "Hg15 mi
8:00 PM50 °FPassing clouds.7 mph58%30.39 "Hg15 mi
7:00 PM52 °FPassing clouds.6 mph58%30.38 "Hg15 mi
6:00 PM55 °FScattered clouds.10 mph47%30.38 "Hg15 mi
5:00 PM57 °FPassing clouds.8 mph41%30.39 "Hg15 mi
4:00 PM57 °FScattered clouds.12 mph39%30.41 "Hg15 mi
3:00 PM57 °FScattered clouds.7 mph44%30.42 "Hg15 mi
Weather by CustomWeather, © 2015

See weather overviewHow to use our weather pages